Darstellungsparameter: Aktuell verwendete Einstellungen:
Skalierung der Graphiken ... ?
xyx+y,   Skalierungsfaktor:      Skalierung: Modus: x, Faktor: 1
Darstellungszeitraum ... ?
Vom - - bis: - -   Zeitraum: 14.04.2021 - 14.04.2021
Min/Max/Avg-Anzeige ... ?
Zeige MMA aktuell
Zeige MMA Monat
Zeige MMA alles
Zeige --A aktuell
Zeige --A Monat
Zeige --A alles
Keine MMA-Anzeige
MMA:
Average (ber die Originaldaten)
MMA-Basis: 23.02.2003 - 30.09.2020
Quicknavigation für Darstellung... ?
Tage:      1T, 2T, 3T, 5T -1T -2T -3T -5T +1T +2T +3T +5T
Wochen: 1W, 2W, 3W -1W -2W -3W +1W +2W +3W
Monate: 1M, 3M, 6M -1M -3M -6M +1M +3M +6M
Jahre:    1J, 3J, 5J, 10J -1J -3J -5J -10J +1J +3J +5J +10J
Nutze für die Darstellung ... ?
Originaldaten oder Mittelwerte auf ...
Stundenbasis Tagesbasis Wochenbasis
Monatsbasis Jahresbasis      Datenbasis: Original-Daten
Darstellen als:
Statistik (Auto) Statistik J:M      Darstellung:

Der gewünschte Datumsbereich war nicht gültig/verfügbar und wurde korrigiert....
Das angegebene Enddatum (27.09.2021 23:59:59) liegt in der Zukunft.
Das angegebene Startdatum (28.08.2021 00:00:00) liegt in der Zukunft.


Zur Graphik,    zurück zur Übersicht aller Sensoren.
 
Tabellarische Datenbersicht: ?
 
Sensor: Nr:Datum:Temp:Abs-Feuchte:Windchill:Wind:
Aussen-T/F 1 14-04-2021 02:00:00 -0.2 C 4.4 g/m*3 -0.2 C 0 km/h
2 14-04-2021 02:05:00 -0.2 C 4.4 g/m*3 -0.2 C 0 km/h
3 14-04-2021 02:10:00 -0.2 C 4.4 g/m*3 -0.2 C 0 km/h
4 14-04-2021 02:15:00 -0.3 C 4.37 g/m*3 -0.3 C 0 km/h
5 14-04-2021 02:20:00 -0.3 C 4.41 g/m*3 -0.3 C 0 km/h
6 14-04-2021 02:25:00 -0.3 C 4.41 g/m*3 -0.3 C 0 km/h
7 14-04-2021 02:30:00 -0.4 C 4.38 g/m*3 -0.4 C 0 km/h
8 14-04-2021 02:35:00 -0.4 C 4.38 g/m*3 -0.4 C 0 km/h
9 14-04-2021 02:40:00 -0.4 C 4.38 g/m*3 -0.4 C 0 km/h
10 14-04-2021 02:45:00 -0.6 C 4.32 g/m*3 -0.6 C 0 km/h
11 14-04-2021 02:50:00 -0.6 C 4.32 g/m*3 -0.6 C 0 km/h
12 14-04-2021 02:55:00 -0.6 C 4.32 g/m*3 -0.6 C 0 km/h
13 14-04-2021 03:00:00 -0.6 C 4.32 g/m*3 -0.6 C 0 km/h
14 14-04-2021 03:05:00 -0.6 C 4.32 g/m*3 -0.6 C 0 km/h
15 14-04-2021 03:10:00 -0.7 C 4.29 g/m*3 -0.7 C 0 km/h
16 14-04-2021 03:15:00 -0.7 C 4.29 g/m*3 -0.7 C 0 km/h
17 14-04-2021 03:20:00 -0.7 C 4.29 g/m*3 -0.7 C 0 km/h
18 14-04-2021 03:25:00 -0.7 C 4.29 g/m*3 -0.7 C 0 km/h
19 14-04-2021 03:30:00 -0.8 C 4.26 g/m*3 -0.8 C 0 km/h
20 14-04-2021 03:35:00 -0.8 C 4.26 g/m*3 -0.8 C 0 km/h
21 14-04-2021 03:40:00 -0.8 C 4.26 g/m*3 -0.8 C 0 km/h
22 14-04-2021 03:45:00 -0.9 C 4.23 g/m*3 -0.9 C 0 km/h
23 14-04-2021 03:50:00 -0.9 C 4.23 g/m*3 -0.9 C 0 km/h
24 14-04-2021 03:55:00 -0.9 C 4.23 g/m*3 -0.9 C 0 km/h
25 14-04-2021 04:00:00 -1 C 4.2 g/m*3 -1 C 0 km/h
Sensor: Nr:Datum:Temp:Abs-Feuchte:Windchill:Wind:
Aussen-T/F 26 14-04-2021 04:05:00 -1 C 4.25 g/m*3 -1 C 0 km/h
27 14-04-2021 04:10:00 -1 C 4.25 g/m*3 -1 C 0 km/h
28 14-04-2021 04:15:00 -1 C 4.25 g/m*3 -1 C 0 km/h
29 14-04-2021 04:20:00 -1.1 C 4.22 g/m*3 -1.1 C 0 km/h
30 14-04-2021 04:25:00 -1.1 C 4.22 g/m*3 -1.1 C 0 km/h
31 14-04-2021 04:30:00 -1.1 C 4.22 g/m*3 -1.1 C 0 km/h
32 14-04-2021 04:35:00 -1.1 C 4.22 g/m*3 -1.1 C 0 km/h
33 14-04-2021 04:40:00 -1.1 C 4.22 g/m*3 -1.1 C 0 km/h
34 14-04-2021 04:45:00 -1.1 C 4.22 g/m*3 -1.1 C 0 km/h
35 14-04-2021 04:50:00 -1.1 C 4.22 g/m*3 -1.1 C 0 km/h
36 14-04-2021 04:55:00 -1.1 C 4.22 g/m*3 -1.1 C 1.6 km/h
37 14-04-2021 05:00:00 -1.1 C 4.22 g/m*3 -1.1 C 0 km/h
38 14-04-2021 05:05:00 -1.1 C 4.22 g/m*3 -1.1 C 0 km/h
39 14-04-2021 05:10:00 -1.2 C 4.19 g/m*3 -1.2 C 0 km/h
40 14-04-2021 05:15:00 -1.2 C 4.19 g/m*3 -1.2 C 0 km/h
41 14-04-2021 05:20:00 -1.2 C 4.19 g/m*3 -1.2 C 0 km/h
42 14-04-2021 05:25:00 -1.3 C 4.16 g/m*3 -1.3 C 0 km/h
43 14-04-2021 05:30:00 -1.3 C 4.16 g/m*3 -1.3 C 0 km/h
44 14-04-2021 05:35:00 -1.3 C 4.16 g/m*3 -1.3 C 0 km/h
45 14-04-2021 05:40:00 -1.4 C 4.13 g/m*3 -1.4 C 0 km/h
46 14-04-2021 05:45:00 -1.5 C 4.1 g/m*3 -1.5 C 0 km/h
47 14-04-2021 05:50:00 -1.6 C 4.07 g/m*3 -1.6 C 0 km/h
48 14-04-2021 05:55:00 -1.6 C 4.07 g/m*3 -1.6 C 0 km/h
49 14-04-2021 06:00:00 -1.7 C 4.05 g/m*3 -1.7 C 0 km/h
50 14-04-2021 06:05:00 -1.7 C 4.05 g/m*3 -1.7 C 0 km/h
Sensor: Nr:Datum:Temp:Abs-Feuchte:Windchill:Wind:
Aussen-T/F 51 14-04-2021 06:10:00 -1.7 C 4.05 g/m*3 -1.7 C 0 km/h
52 14-04-2021 06:15:00 -1.7 C 4.05 g/m*3 -1.7 C 0 km/h
53 14-04-2021 06:20:00 -1.7 C 4.05 g/m*3 -1.7 C 0 km/h
54 14-04-2021 06:25:00 -1.7 C 4.05 g/m*3 -1.7 C 0 km/h
55 14-04-2021 06:30:00 -1.7 C 4.05 g/m*3 -1.7 C 0 km/h
56 14-04-2021 06:35:00 -1.7 C 4.05 g/m*3 -1.7 C 0 km/h
57 14-04-2021 06:40:00 -1.7 C 4.05 g/m*3 -1.7 C 0 km/h
58 14-04-2021 06:45:00 -1.7 C 4.05 g/m*3 -1.7 C 0 km/h
59 14-04-2021 06:50:00 -1.7 C 4.05 g/m*3 -1.7 C 0 km/h
60 14-04-2021 06:55:00 -1.7 C 4.05 g/m*3 -1.7 C 0 km/h
61 14-04-2021 07:00:00 -1.8 C 4.02 g/m*3 -1.8 C 0 km/h
62 14-04-2021 07:05:00 -1.8 C 4.02 g/m*3 -1.8 C 0 km/h
63 14-04-2021 07:10:00 -1.8 C 4.02 g/m*3 -1.8 C 0 km/h
64 14-04-2021 07:15:00 -1.8 C 4.02 g/m*3 -1.8 C 0 km/h
65 14-04-2021 07:20:00 -1.8 C 4.02 g/m*3 -1.8 C 0 km/h
66 14-04-2021 07:25:00 -1.8 C 4.02 g/m*3 -1.8 C 0 km/h
67 14-04-2021 07:30:00 -1.8 C 4.02 g/m*3 -1.8 C 0 km/h
68 14-04-2021 07:35:00 -1.7 C 4.05 g/m*3 -1.7 C 0 km/h
69 14-04-2021 07:40:00 -1.7 C 4.09 g/m*3 -1.7 C 0 km/h
70 14-04-2021 07:45:00 -1.7 C 4.09 g/m*3 -1.7 C 0 km/h
71 14-04-2021 07:50:00 -1.7 C 4.09 g/m*3 -1.7 C 0 km/h
72 14-04-2021 07:55:00 -1.6 C 4.12 g/m*3 -1.6 C 0 km/h
73 14-04-2021 08:00:00 -1.5 C 4.15 g/m*3 -1.5 C 0 km/h
74 14-04-2021 08:05:00 -1.4 C 4.18 g/m*3 -1.4 C 0 km/h
75 14-04-2021 08:10:00 -1.4 C 4.18 g/m*3 -1.4 C 0 km/h
Sensor: Nr:Datum:Temp:Abs-Feuchte:Windchill:Wind:
Aussen-T/F 76 14-04-2021 08:15:00 -1.4 C 4.18 g/m*3 -1.4 C 0 km/h
77 14-04-2021 08:20:00 -1.4 C 4.18 g/m*3 -1.4 C 0 km/h
78 14-04-2021 08:25:00 -1.3 C 4.21 g/m*3 -1.3 C 0 km/h
79 14-04-2021 08:30:00 -1.3 C 4.21 g/m*3 -1.3 C 0 km/h
80 14-04-2021 08:35:00 -1.3 C 4.21 g/m*3 -1.3 C 0 km/h
81 14-04-2021 08:40:00 -1.2 C 4.24 g/m*3 -1.2 C 0 km/h
82 14-04-2021 08:45:00 -1.2 C 4.24 g/m*3 -1.2 C 0 km/h
83 14-04-2021 08:50:00 -1.1 C 4.26 g/m*3 -1.1 C 0 km/h
84 14-04-2021 08:55:00 -1.1 C 4.26 g/m*3 -1.1 C 0 km/h
85 14-04-2021 09:00:00 -0.9 C 4.32 g/m*3 -0.9 C 0 km/h
86 14-04-2021 09:05:00 -0.8 C 4.35 g/m*3 -0.8 C 0 km/h
87 14-04-2021 09:10:00 -0.7 C 4.39 g/m*3 -0.7 C 0 km/h
88 14-04-2021 09:15:00 -0.7 C 4.39 g/m*3 -0.7 C 0 km/h
89 14-04-2021 09:20:00 -0.6 C 4.42 g/m*3 -0.6 C 0 km/h
90 14-04-2021 09:25:00 -0.4 C 4.48 g/m*3 -0.4 C 0 km/h
91 14-04-2021 09:30:00 -0.3 C 4.51 g/m*3 -0.3 C 0 km/h
92 14-04-2021 09:35:00 -0.2 C 4.59 g/m*3 -0.2 C 0 km/h
93 14-04-2021 09:40:00 -0.1 C 4.57 g/m*3 -0.1 C 0 km/h
94 14-04-2021 09:45:00 0 C 4.65 g/m*3 0 C 0 km/h
95 14-04-2021 09:50:00 0.2 C 4.72 g/m*3 0.2 C 0 km/h
96 14-04-2021 09:55:00 0.3 C 4.75 g/m*3 0.3 C 0 km/h
97 14-04-2021 10:00:00 0.4 C 4.78 g/m*3 0.4 C 0 km/h
98 14-04-2021 10:05:00 0.6 C 4.85 g/m*3 0.6 C 0 km/h
99 14-04-2021 10:10:00 0.8 C 4.91 g/m*3 0.8 C 0 km/h
100 14-04-2021 10:15:00 1 C 4.98 g/m*3 1 C 0 km/h
Sensor: Nr:Datum:Temp:Abs-Feuchte:Windchill:Wind:
Aussen-T/F 101 14-04-2021 10:20:00 1.2 C 5.05 g/m*3 1.2 C 0 km/h
102 14-04-2021 10:25:00 1.4 C 5.12 g/m*3 1.4 C 0 km/h
103 14-04-2021 10:30:00 1.7 C 5.23 g/m*3 1.7 C 1.6 km/h
104 14-04-2021 10:35:00 1.9 C 5.3 g/m*3 1.9 C 0 km/h
105 14-04-2021 10:40:00 2.2 C 5.41 g/m*3 2.2 C 0 km/h
106 14-04-2021 10:45:00 2.4 C 5.48 g/m*3 2.4 C 0 km/h
107 14-04-2021 10:50:00 2.7 C 5.54 g/m*3 2.7 C 0 km/h
108 14-04-2021 10:55:00 3 C 5.65 g/m*3 3 C 0 km/h
109 14-04-2021 11:00:00 3.3 C 5.7 g/m*3 3.3 C 0 km/h
110 14-04-2021 11:05:00 3.7 C 5.67 g/m*3 3.7 C 1.6 km/h
111 14-04-2021 11:10:00 4 C 5.66 g/m*3 4 C 1.6 km/h
112 14-04-2021 11:15:00 4.4 C 5.42 g/m*3 4.4 C 3.2 km/h
113 14-04-2021 11:20:00 5 C 5.3 g/m*3 5 C 4.8 km/h
114 14-04-2021 11:25:00 5.5 C 5.41 g/m*3 5.5 C 3.2 km/h
115 14-04-2021 11:30:00 5.8 C 4.58 g/m*3 5.8 C 4.8 km/h
116 14-04-2021 11:35:00 6.3 C 4.59 g/m*3 6.3 C 4.8 km/h
117 14-04-2021 11:40:00 6.5 C 4.5 g/m*3 6.5 C 0 km/h
118 14-04-2021 11:45:00 6.7 C 4.26 g/m*3 5.56 C 6.4 km/h
119 14-04-2021 11:50:00 7.1 C 4.21 g/m*3 6.02 C 6.4 km/h
120 14-04-2021 11:55:00 7.4 C 4.29 g/m*3 4.78 C 14.5 km/h
121 14-04-2021 12:00:00 7.7 C 4.3 g/m*3 5.94 C 9.7 km/h
122 14-04-2021 12:05:00 7.8 C 4.33 g/m*3 5.51 C 12.9 km/h
123 14-04-2021 12:10:00 7.7 C 4.14 g/m*3 6.28 C 8.1 km/h
124 14-04-2021 12:15:00 7.6 C 3.95 g/m*3 5.02 C 14.5 km/h
125 14-04-2021 12:20:00 7.5 C 3.92 g/m*3 5.7 C 9.7 km/h
Sensor: Nr:Datum:Temp:Abs-Feuchte:Windchill:Wind:
Aussen-T/F 126 14-04-2021 12:25:00 7.5 C 4 g/m*3 5.41 C 11.3 km/h
127 14-04-2021 12:30:00 7.4 C 3.82 g/m*3 4.56 C 16.1 km/h
128 14-04-2021 12:35:00 7.3 C 3.95 g/m*3 4.9 C 12.9 km/h
129 14-04-2021 12:40:00 7.3 C 3.79 g/m*3 5.16 C 11.3 km/h
130 14-04-2021 12:45:00 7.3 C 3.71 g/m*3 6.25 C 6.4 km/h
131 14-04-2021 12:50:00 7.4 C 3.98 g/m*3 7.4 C 4.8 km/h
132 14-04-2021 12:55:00 7.8 C 3.84 g/m*3 6.83 C 6.4 km/h
133 14-04-2021 13:00:00 8.1 C 3.99 g/m*3 8.1 C 4.8 km/h
134 14-04-2021 13:05:00 8.2 C 3.77 g/m*3 6.54 C 9.7 km/h
135 14-04-2021 13:10:00 8.2 C 4.02 g/m*3 6.87 C 8.1 km/h
136 14-04-2021 13:15:00 8.2 C 4.02 g/m*3 6.25 C 11.3 km/h
137 14-04-2021 13:20:00 8.1 C 3.99 g/m*3 6.42 C 9.7 km/h
138 14-04-2021 13:25:00 8.1 C 3.83 g/m*3 5.87 C 12.9 km/h
139 14-04-2021 13:30:00 8.1 C 3.91 g/m*3 5.87 C 12.9 km/h
140 14-04-2021 13:35:00 8.1 C 4.08 g/m*3 7.17 C 6.4 km/h
141 14-04-2021 13:40:00 8 C 3.72 g/m*3 6.01 C 11.3 km/h
142 14-04-2021 13:45:00 7.8 C 3.84 g/m*3 5.51 C 12.9 km/h
143 14-04-2021 13:50:00 7.7 C 4.05 g/m*3 5.65 C 11.3 km/h
144 14-04-2021 13:55:00 7.6 C 4.11 g/m*3 6.6 C 6.4 km/h
145 14-04-2021 14:00:00 7.6 C 4.11 g/m*3 5.02 C 14.5 km/h
146 14-04-2021 14:05:00 7.4 C 4.06 g/m*3 4.56 C 16.1 km/h
147 14-04-2021 14:10:00 7.5 C 4.4 g/m*3 5.14 C 12.9 km/h
148 14-04-2021 14:15:00 7.9 C 4.6 g/m*3 6.18 C 9.7 km/h
149 14-04-2021 14:20:00 8.3 C 4.97 g/m*3 6.66 C 9.7 km/h
150 14-04-2021 14:25:00 8.4 C 4.92 g/m*3 6.24 C 12.9 km/h
Sensor: Nr:Datum:Temp:Abs-Feuchte:Windchill:Wind:
Aussen-T/F 151 14-04-2021 14:30:00 8.1 C 4.74 g/m*3 5.87 C 12.9 km/h
152 14-04-2021 14:35:00 8 C 4.8 g/m*3 6.3 C 9.7 km/h
153 14-04-2021 14:40:00 7.9 C 4.85 g/m*3 5.89 C 11.3 km/h
154 14-04-2021 14:45:00 8.1 C 4.91 g/m*3 5.87 C 12.9 km/h
155 14-04-2021 14:50:00 8.1 C 4.74 g/m*3 5.23 C 17.7 km/h
156 14-04-2021 14:55:00 8 C 4.71 g/m*3 5.11 C 17.7 km/h
157 14-04-2021 15:00:00 8.2 C 4.77 g/m*3 6.25 C 11.3 km/h
158 14-04-2021 15:05:00 8.6 C 4.73 g/m*3 6.73 C 11.3 km/h
159 14-04-2021 15:10:00 8.8 C 4.7 g/m*3 5.93 C 19.3 km/h
160 14-04-2021 15:15:00 9.1 C 4.7 g/m*3 7.33 C 11.3 km/h
161 14-04-2021 15:20:00 8.9 C 4.38 g/m*3 6.62 C 14.5 km/h
162 14-04-2021 15:25:00 8.6 C 4.47 g/m*3 6.73 C 11.3 km/h
163 14-04-2021 15:30:00 8.5 C 4.35 g/m*3 6.13 C 14.5 km/h
164 14-04-2021 15:35:00 8.6 C 4.64 g/m*3 6.25 C 14.5 km/h
165 14-04-2021 15:40:00 8.8 C 4.61 g/m*3 6.97 C 11.3 km/h
166 14-04-2021 15:45:00 8.9 C 4.47 g/m*3 6.06 C 19.3 km/h
167 14-04-2021 15:50:00 8.9 C 4.64 g/m*3 6.42 C 16.1 km/h
168 14-04-2021 15:55:00 8.5 C 4.53 g/m*3 5.73 C 17.7 km/h
169 14-04-2021 16:00:00 8.3 C 4.38 g/m*3 5.68 C 16.1 km/h
170 14-04-2021 16:05:00 8.5 C 4.44 g/m*3 5.92 C 16.1 km/h
171 14-04-2021 16:10:00 8.7 C 4.41 g/m*3 6.85 C 11.3 km/h
172 14-04-2021 16:15:00 9.1 C 4.44 g/m*3 7.09 C 12.9 km/h
173 14-04-2021 16:20:00 9 C 4.32 g/m*3 6.97 C 12.9 km/h
174 14-04-2021 16:25:00 9.2 C 4.64 g/m*3 7.46 C 11.3 km/h
175 14-04-2021 16:30:00 9.6 C 4.58 g/m*3 8.52 C 8.1 km/h
Sensor: Nr:Datum:Temp:Abs-Feuchte:Windchill:Wind:
Aussen-T/F 176 14-04-2021 16:35:00 9.8 C 4.64 g/m*3 8.18 C 11.3 km/h
177 14-04-2021 16:40:00 9.9 C 4.58 g/m*3 8.3 C 11.3 km/h
178 14-04-2021 16:45:00 10.1 C 4.63 g/m*3 8.8 C 9.7 km/h
179 14-04-2021 16:50:00 10.1 C 4.54 g/m*3 8.8 C 9.7 km/h
180 14-04-2021 16:55:00 9.9 C 4.48 g/m*3 7.32 C 19.3 km/h
181 14-04-2021 17:00:00 8.8 C 5.22 g/m*3 5.2 C 27.4 km/h
182 14-04-2021 17:05:00 7.8 C 5.3 g/m*3 4.68 C 19.3 km/h
183 14-04-2021 17:10:00 7.8 C 5.55 g/m*3 5.06 C 16.1 km/h
184 14-04-2021 17:15:00 7.4 C 5.41 g/m*3 4.36 C 17.7 km/h
185 14-04-2021 17:20:00 7.2 C 5.42 g/m*3 4.11 C 17.7 km/h
186 14-04-2021 17:25:00 7.1 C 5.46 g/m*3 4.41 C 14.5 km/h
187 14-04-2021 17:30:00 6.8 C 5.35 g/m*3 4.56 C 11.3 km/h
188 14-04-2021 17:35:00 6.6 C 5.36 g/m*3 3.79 C 14.5 km/h
189 14-04-2021 17:40:00 6.6 C 5.44 g/m*3 6.6 C 3.2 km/h
190 14-04-2021 17:45:00 6.8 C 5.51 g/m*3 6.8 C 1.6 km/h
191 14-04-2021 17:50:00 6.8 C 5.35 g/m*3 6.8 C 3.2 km/h
192 14-04-2021 17:55:00 6.8 C 5.12 g/m*3 6.8 C 3.2 km/h
193 14-04-2021 18:00:00 6.9 C 5.16 g/m*3 6.9 C 0 km/h
194 14-04-2021 18:05:00 7 C 5.19 g/m*3 7 C 0 km/h
195 14-04-2021 18:10:00 7.1 C 5.23 g/m*3 7.1 C 0 km/h
196 14-04-2021 18:15:00 7.1 C 5.15 g/m*3 7.1 C 1.6 km/h
197 14-04-2021 18:20:00 7.1 C 4.99 g/m*3 7.1 C 4.8 km/h
198 14-04-2021 18:25:00 7 C 4.88 g/m*3 7 C 4.8 km/h
199 14-04-2021 18:30:00 7 C 4.96 g/m*3 7 C 1.6 km/h
200 14-04-2021 18:35:00 6.9 C 4.77 g/m*3 6.9 C 0 km/h
Sensor: Nr:Datum:Temp:Abs-Feuchte:Windchill:Wind:
Aussen-T/F 201 14-04-2021 18:40:00 6.9 C 4.77 g/m*3 6.9 C 0 km/h
202 14-04-2021 18:45:00 6.9 C 4.77 g/m*3 6.9 C 1.6 km/h
203 14-04-2021 18:50:00 6.9 C 5 g/m*3 6.9 C 0 km/h
204 14-04-2021 18:55:00 7.2 C 5.02 g/m*3 7.2 C 0 km/h
205 14-04-2021 19:00:00 7.6 C 5.08 g/m*3 7.6 C 1.6 km/h
206 14-04-2021 19:05:00 7.9 C 5.01 g/m*3 5.89 C 11.3 km/h
207 14-04-2021 19:10:00 7.7 C 5.35 g/m*3 4.93 C 16.1 km/h
208 14-04-2021 19:15:00 7.3 C 5.37 g/m*3 4.44 C 16.1 km/h
209 14-04-2021 19:20:00 6.9 C 5.31 g/m*3 3.54 C 19.3 km/h
210 14-04-2021 19:25:00 6.3 C 5.26 g/m*3 3.68 C 12.9 km/h
211 14-04-2021 19:30:00 5.9 C 5.34 g/m*3 4.17 C 8.1 km/h
212 14-04-2021 19:35:00 5.7 C 5.41 g/m*3 5.7 C 4.8 km/h
213 14-04-2021 19:40:00 5.6 C 5.44 g/m*3 5.6 C 1.6 km/h
214 14-04-2021 19:45:00 5.5 C 5.41 g/m*3 5.5 C 3.2 km/h
215 14-04-2021 19:50:00 5.4 C 5.37 g/m*3 5.4 C 0 km/h
216 14-04-2021 19:55:00 5.4 C 5.37 g/m*3 5.4 C 0 km/h
217 14-04-2021 20:00:00 5.3 C 5.34 g/m*3 5.3 C 1.6 km/h
218 14-04-2021 20:05:00 5.3 C 5.41 g/m*3 5.3 C 0 km/h
219 14-04-2021 20:10:00 5.3 C 5.41 g/m*3 5.3 C 0 km/h
220 14-04-2021 20:15:00 5.2 C 5.44 g/m*3 5.2 C 0 km/h
221 14-04-2021 20:20:00 5 C 5.3 g/m*3 5 C 0 km/h
222 14-04-2021 20:25:00 4.8 C 5.3 g/m*3 4.8 C 4.8 km/h
223 14-04-2021 20:30:00 4.6 C 5.23 g/m*3 4.6 C 4.8 km/h
224 14-04-2021 20:35:00 4.3 C 5.19 g/m*3 4.3 C 4.8 km/h
225 14-04-2021 20:40:00 4.1 C 5.12 g/m*3 4.1 C 3.2 km/h
Sensor: Nr:Datum:Temp:Abs-Feuchte:Windchill:Wind:
Aussen-T/F 226 14-04-2021 20:45:00 3.9 C 5.12 g/m*3 3.9 C 3.2 km/h
227 14-04-2021 20:50:00 3.8 C 5.14 g/m*3 3.8 C 3.2 km/h
228 14-04-2021 20:55:00 3.7 C 5.11 g/m*3 3.7 C 3.2 km/h
229 14-04-2021 21:00:00 3.6 C 5.14 g/m*3 3.6 C 0 km/h
230 14-04-2021 21:05:00 3.5 C 5.1 g/m*3 3.5 C 4.8 km/h
231 14-04-2021 21:10:00 3.5 C 5.16 g/m*3 3.5 C 0 km/h
232 14-04-2021 21:15:00 3.4 C 5.13 g/m*3 3.4 C 0 km/h
233 14-04-2021 21:20:00 3.3 C 5.1 g/m*3 3.3 C 0 km/h
234 14-04-2021 21:25:00 3.3 C 5.1 g/m*3 3.3 C 0 km/h
235 14-04-2021 21:30:00 3.3 C 5.16 g/m*3 3.3 C 0 km/h

Legende:
   Min
   Max


Maximal/Minimal-Werte vom 23.02.2003 - 30.09.2020

Sensor Min Max Avg
Temp
(Aussen-T/F)
-16.4 °C
20-12-2009  01:30:01
40.4 °C
25-07-2019  16:20:00
11.32 °C

Die Daten stammen von einer Davis Vantage Pro 2 Wetter-Station und werden unter Linux mit der Software wview2wettercgi und aufbereitet. Alle Angaben erfolgen ohne Gewähr für ihre Vollständigkeit oder Richtigkeit.
Kontakt: Rainer Krienke krienke@uni-koblenz.de . Meine Webseiten an der Uni Koblenz oder privat.
Version: $Revision: 0.78 $